Regional Weather Roundup
Issued by NWS

Home | Current Version | Previous Version | Text Only | Print | Product List | Glossary On
Versions: 1 2 3 4 5 6 7 8 9 10 11 12 13 14 15 16 17 18 19 20 21 22 23 24 25 26 27 28 29 30 31 32 33 34 35 36 37 38 39 40 41 42 43 44 45 46 47 48 49 50
000
ASUS45 KTFX 252010
RWRMT
MONTANA REGIONAL WEATHER ROUNDUP
NATIONAL WEATHER SERVICE GREAT FALLS MT
200 PM MDT FRI MAY 25 2018

NOTE: "FAIR" INDICATES FEW OR NO CLOUDS BELOW 12000 FEET WITH NO
SIGNIFICANT WEATHER AND/OR OBSTRUCTIONS TO VISIBILITY.

MTZ001>007-043-252100-
WEST OF THE DIVIDE

CITY           SKY/WX    TMP DP  RH WIND       PRES   REMARKS
KALISPELL      FAIR      76  52  43 S8        29.90F
MISSOULA       FAIR      75  47  36 CALM      29.90F
BUTTE          FAIR      74  43  32 MISG      30.01F
MULLAN PASS    PTSUNNY   62  40  44 CALM      30.04F
ANACONDA         N/A     75  43  31 E7        29.96F
DEER LODGE       N/A     73  45  35 E5        29.98F
HAMILTON         N/A     75  48  38 MISG      29.91F
PLAINS           N/A     79  55  43 CALM      29.89F
RONAN            N/A     77  48  36 CALM      29.92F
THOMPSON FALLS   N/A     80  53  39 W5        29.91F
$$

MTZ008-052>055-252100-
SOUTHWEST MONTANA

CITY           SKY/WX    TMP DP  RH WIND       PRES   REMARKS
BOZEMAN        FAIR      75  49  39 N6        29.98F
DILLON         FAIR      73  48  41 VRB5      29.98F
ENNIS          SUNNY     75  48  38 CALM      30.04F
W YELLOWSTONE  PTSUNNY   68  41  37 VRB7      30.09F
TWIN BRIDGES     N/A     74  45  35 SE2       29.98F
$$

MTZ009-010-012-014-046-048-049-054-252100-
EAST SLOPES AND CENTRAL MONTANA

CITY           SKY/WX    TMP DP  RH WIND       PRES   REMARKS
CUT BANK       FAIR      76  40  27 W7        29.89F
GREAT FALLS    FAIR      79  45  29 W8        29.90F
MALMSTROM AFB  FAIR      76  43  30 S7        29.90F
HELENA         FAIR      77  48  35 SE8       29.92F
CHOTEAU          N/A     75  41  29 VRB5      29.92F
WHITE SULPHUR    N/A     72  43  35 CALM      29.99F
$$

MTZ011-013-016-021-045-047-050-051-252100-
NORTH CENTRAL MONTANA

CITY           SKY/WX    TMP DP  RH WIND       PRES   REMARKS
HAVRE          FAIR      82  48  30 W9        29.83F
LEWISTOWN      FAIR      73  46  38 CALM      29.94F
N BAR RANCH    FAIR      75  45  33 NW14      29.97F
CHINOOK          N/A     81  43  26 W8        29.82
$$

MTZ017>020-022>027-061-062-252100-
NORTHEAST MONTANA

CITY           SKY/WX    TMP DP  RH WIND       PRES   REMARKS
GLASGOW        FAIR      84  46  26 W8        29.79F
GLENDIVE       FAIR      81  55  40 W14G23    29.83F
JORDAN           N/A     81  54  39 W17       29.84F
MALTA          SUNNY     82  50  32 SW10G17   29.78F
SIDNEY         FAIR      82  53  36 NW14      29.78S
WOLF POINT     FAIR      85  51  31 W15G23    29.78F
PLENTYWOOD       N/A     81  46  30 MISG      29.75S
POPLAR           N/A     82  46  28 MISG      29.77F
SCOBEY           N/A     81  48  31 W20       29.79F
$$

MTZ028>42-056>058-252100-
SOUTHCENTRAL AND SOUTHEAST MONTANA

CITY           SKY/WX    TMP DP  RH WIND       PRES   REMARKS
BAKER          FAIR      81  51  35 W24G31    29.87F
BILLINGS       FAIR      77  52  41 S9        29.93F
LIVINGSTON     FAIR      76  51  41 NW8       29.96F
MILES CITY     FAIR      80  54  40 W15G25    29.87S
BIG TIMBER     SUNNY     75  50  41 W13       29.97F
EKALAKA          N/A     77  51  39 W10       29.91F
LAUREL           N/A     79  52  38 CALM      29.94F
$$

REGIONAL REPORTS...DAKOTAS

CITY           SKY/WX    TMP DP  RH WIND       PRES   REMARKS
WILLISTON      FAIR      88  49  25 W14G24    29.74F
MINOT          FAIR      91  44  19 W22G29    29.67S
DICKINSON      FAIR      85  48  27 NW20G33   29.79S
BEACH          FAIR      81  50  34 W17G30    29.87S
CROSBY         FAIR      84  45  24 W21G31    29.71F
TIOGA          FAIR      82  46  28 W23       29.76S
WATFORD CITY   FAIR      84  48  28 NW14      29.76F
BISMARCK       FAIR      89  49  25 W21G26    29.72F
GRAND FORKS    PTSUNNY   93  52  24 W17       29.59F HX  90
FARGO          FAIR      90  54  29 W7        29.64F
BUFFALO SD       N/A     83  50  31 W22G29    29.83S
RAPID CITY     FAIR      81  55  40 E3        29.92F
$$

REGIONAL REPORTS...WYOMING/IDAHO/WASHINGTON

CITY           SKY/WX    TMP DP  RH WIND       PRES   REMARKS
GILLETTE       FAIR      79  48  33 SW10      29.99F
SHERIDAN       FAIR      79  52  38 VRB6      29.96F
BUFFALO WY     FAIR      77  49  37 SE9       30.01F
CODY           FAIR      75  49  39 S15       30.01F
YELLOWSTONE LA   N/A     60  41  49 CALM      30.20F
IDAHO FALLS    FAIR      78  54  43 VRB5      29.97F
SALMON         FAIR      73  49  42 CALM      29.92F
BOISE          FAIR      81  55  40 W9        29.82F
SPOKANE        PTSUNNY   75  49  39 SW9       29.89F
$$

REGIONAL REPORTS...ALBERTA

CITY           SKY/WX    TMP DP  RH WIND       PRES   REMARKS
CALGARY        MOSUNNY   79  37  22 S9G18     29.81F
EDMONTON       MOSUNNY   77  41  27 N3        29.75F
FORT MCMURRAY  CLOUDY    72  55  56 VRB2      29.67S
HIGH LEVEL     MOSUNNY   72  32  23 VRB2      29.68F
LLOYDMINSTER   PTSUNNY   73  55  53 NW14G20   29.71S
MEDICINE HAT   MOSUNNY   82  43  24 W9G17     29.79F
MILK RIVER       N/A     81  46  30 NW10        N/A
PEACE RIVER    MOSUNNY   72  30  21 W15G26    29.73F
PINCHER CREEK    N/A     77  41  27 SW13        N/A
WATERTON GATE    N/A     73  43  33 SW17G24     N/A
$$

REGIONAL REPORTS...SASKATCHEWAN

CITY           SKY/WX    TMP DP  RH WIND       PRES   REMARKS
CORONACH         N/A     82  43  24 W21G29      N/A
CYPRESS HILLS    N/A     73  37  27 NW9         N/A
ESTEVAN        MOSUNNY   84  46  26 NW25G33   29.68F
MOOSE JAW        N/A     79  43  27 W25G32      N/A
PRINCE ALBERT  LGT RAIN  66  61  82 NW15      29.61S
REGINA         PTSUNNY   79  54  41 W23G32    29.67F
ROCKGLEN         N/A     77  43  29 NW15G24     N/A
SASKATOON      PTSUNNY   68  57  68 NW15G23   29.66R
SWIFT CURRENT  SUNNY     81  46  30 W23G38    29.75S
VAL MARIE        N/A     82  39  21 NW16G37     N/A
$$



USA.gov is the U.S. government's official web portal to all federal, state and local government web resources and services.